Location: Praha
(50.0830°N, 14.4670°E)
Time: 15:15:55
(UTC+02:00)

ISS - Pass Details

Date: 04 October 2019
Orbit: 411 x 421 km, 51.6° (Epoch: 18 October)

Event Time Altitude Azimuth Distance (km) Brightness Sun altitude
Rises 21:20:43 0° 283° (WNW) 2,346 1.2 -26.7°
Reaches altitude 10° 21:23:18 10° 262° (W) 1,480 -0.3 -27.0°
Enters shadow 21:24:05 13° 250° (WSW) 1,288 -0.8 -27.1°
